Date String (YYYY-MM-DD hh:mm:ss) UTC,Instrument flags,Ambient pressure (hPa),Sample flow (lpm),Bypass flow (lpm),Sample temperature (°C),Ambient temperature (°C),ASC tube jacket temperature (°C),LED temperature (°C),Box temperature (°C),Sample RH (%),Span deviation,Mass concentration (μg/m³),Mass concentration (μg/m³),Mass concentration (μg/m³)
DateTimeUTC,F1_M11,P_M11,Q1_M11,Q2_M11,T1_M11,T2_M11,T3_M11,T4_M11,T5_M11,U1_M11,ZSPAN_M11,X0_M11,X2_M11,X1_M11
2022-06-15 04:00:00,,0823.4,5.00,0.00,29.9,29.1,00.0,38.7,31.9,18.1,0000.0,0021.94,0006.96,0002.83
2022-06-15 04:01:00,,0823.4,4.99,0.00,30.0,29.2,00.0,38.7,31.9,18.0,0000.0,0022.57,0007.06,0002.81
2022-06-15 04:02:00,,0823.4,5.01,0.00,30.0,29.2,00.0,38.8,31.9,18.0,0000.0,0022.48,0006.98,0002.79
2022-06-15 04:03:00,,0823.3,5.01,0.00,30.0,28.5,00.0,38.7,31.8,18.0,0000.0,0022.13,0006.90,0002.78
2022-06-15 04:04:00,,0823.4,4.99,0.00,29.9,27.8,00.0,38.7,31.5,18.0,0000.0,0022.28,0006.95,0002.79
2022-06-15 04:05:00,,0823.3,5.01,0.00,29.8,27.6,00.0,38.6,31.5,18.1,0000.0,0022.05,0006.90,0002.80
2022-06-15 04:06:00,,0823.4,5.00,0.00,29.7,27.6,00.0,38.6,31.4,18.1,0000.0,0023.22,0006.97,0002.81
2022-06-15 04:07:00,,0823.4,5.00,0.00,29.7,27.7,00.0,38.6,31.4,18.1,0000.0,0023.48,0006.92,0002.82
2022-06-15 04:08:00,,0823.4,5.00,0.00,29.7,27.8,00.0,38.6,31.4,18.0,0000.0,0023.80,0006.93,0002.79
2022-06-15 04:09:00,,0823.4,5.00,0.00,29.7,28.0,00.0,38.6,31.5,18.0,0000.0,0023.87,0006.96,0002.77
2022-06-15 04:10:00,,0823.4,5.00,0.00,29.7,28.1,00.0,38.6,31.5,17.9,0000.0,0023.74,0006.91,0002.76
2022-06-15 04:11:00,,0823.5,5.00,0.00,29.7,28.3,00.0,38.6,31.5,17.9,0000.0,0023.59,0006.82,0002.75
2022-06-15 04:12:00,,0823.5,5.00,0.00,29.7,28.4,00.0,38.6,31.6,17.8,0000.0,0023.30,0006.76,0002.75
2022-06-15 04:13:00,,0823.6,5.01,0.00,29.7,28.5,00.0,38.6,31.6,17.8,0000.0,0022.98,0006.77,0002.73
2022-06-15 04:14:00,,0823.6,5.00,0.00,29.7,28.6,00.0,38.6,31.6,17.7,0000.0,0023.11,0006.83,0002.71
2022-06-15 04:15:00,,0823.6,4.99,0.00,29.7,28.7,00.0,38.6,31.7,17.6,0000.0,0022.08,0006.77,0002.65
2022-06-15 04:16:00,,0823.6,5.01,0.00,29.8,28.7,00.0,38.6,31.7,17.6,0000.0,0021.69,0006.77,0002.62
2022-06-15 04:17:00,,0823.6,5.01,0.00,29.8,28.8,00.0,38.6,31.7,17.6,0000.0,0021.42,0006.68,0002.60
2022-06-15 04:18:00,,0823.6,4.99,0.00,29.8,28.8,00.0,38.6,31.8,17.5,0000.0,0021.84,0006.63,0002.59
2022-06-15 04:19:00,,0823.6,4.99,0.00,29.8,28.9,00.0,38.6,31.8,17.5,0000.0,0022.08,0006.61,0002.60
2022-06-15 04:20:00,,0823.6,4.99,0.00,29.8,28.9,00.0,38.7,31.8,17.4,0000.0,0022.86,0006.56,0002.58
2022-06-15 04:21:00,,0823.6,5.00,0.00,29.9,29.0,00.0,38.7,31.8,17.4,0000.0,0022.40,0006.48,0002.57
2022-06-15 04:22:00,,0823.7,5.01,0.00,29.9,29.0,00.0,38.7,31.9,17.4,0000.0,0023.02,0006.43,0002.57
2022-06-15 04:23:00,,0823.7,5.01,0.00,29.9,29.1,00.0,38.7,31.9,17.3,0000.0,0023.41,0006.33,0002.56
2022-06-15 04:24:00,,0823.7,5.00,0.00,29.9,28.6,00.0,38.7,31.7,17.3,0000.0,0023.66,0006.26,0002.57
2022-06-15 04:25:00,,0823.7,4.98,0.00,29.8,27.7,00.0,38.6,31.4,17.3,0000.0,0023.80,0006.16,0002.58
2022-06-15 04:26:00,,0823.7,5.00,0.00,29.7,27.4,00.0,38.6,31.3,17.3,0000.0,0024.30,0006.08,0002.59
2022-06-15 04:27:00,,0823.7,5.00,0.00,29.7,27.4,00.0,38.6,31.3,17.4,0000.0,0025.03,0006.10,0002.59
2022-06-15 04:28:00,,0823.6,4.99,0.00,29.6,27.5,00.0,38.5,31.3,17.4,0000.0,0024.29,0006.08,0002.57
2022-06-15 04:29:00,,0823.7,5.00,0.00,29.6,27.6,00.0,38.5,31.3,17.4,0000.0,0022.84,0005.97,0002.53
2022-06-15 04:30:00,,0823.7,5.01,0.00,29.6,27.8,00.0,38.5,31.4,17.4,0000.0,0022.08,0005.91,0002.50
2022-06-15 04:31:00,,0823.7,4.99,0.00,29.6,27.9,00.0,38.5,31.4,17.4,0000.0,0021.13,0005.85,0002.49
2022-06-15 04:32:00,,0823.7,4.98,0.00,29.6,28.1,00.0,38.5,31.4,17.4,0000.0,0021.61,0005.85,0002.44
2022-06-15 04:33:00,,0823.7,5.00,0.00,29.6,28.2,00.0,38.5,31.5,17.4,0000.0,0022.43,0005.82,0002.41
2022-06-15 04:34:00,,0823.7,5.00,0.00,29.6,28.3,00.0,38.5,31.5,17.3,0000.0,0021.39,0005.78,0002.42
2022-06-15 04:35:00,,0823.7,5.00,0.00,29.6,28.4,00.0,38.5,31.5,17.3,0000.0,0021.29,0005.75,0002.40
2022-06-15 04:36:00,,0823.7,4.99,0.00,29.6,28.5,00.0,38.5,31.5,17.3,0000.0,0021.27,0005.81,0002.38
2022-06-15 04:37:00,,0823.7,4.98,0.00,29.7,28.6,00.0,38.5,31.6,17.3,0000.0,0020.35,0005.78,0002.37
2022-06-15 04:38:00,,0823.7,4.99,0.00,29.7,28.7,00.0,38.5,31.6,17.2,0000.0,0019.35,0005.71,0002.35
2022-06-15 04:39:00,,0823.7,5.00,0.00,29.7,28.7,00.0,38.5,31.7,17.2,0000.0,0019.15,0005.65,0002.35
2022-06-15 04:40:00,,0823.7,5.00,0.00,29.7,28.8,00.0,38.6,31.7,17.2,0000.0,0019.53,0005.67,0002.34
2022-06-15 04:41:00,,0823.7,5.01,0.00,29.8,28.8,00.0,38.6,31.7,17.2,0000.0,0020.23,0005.68,0002.34
2022-06-15 04:42:00,,0823.7,4.99,0.00,29.8,28.9,00.0,38.6,31.7,17.1,0000.0,0020.06,0005.72,0002.38
2022-06-15 04:43:00,,0823.7,5.00,0.00,29.8,28.9,00.0,38.6,31.7,17.1,0000.0,0020.16,0005.71,0002.42
2022-06-15 04:44:00,,0823.7,4.99,0.00,29.8,29.0,00.0,38.6,31.8,17.0,0000.0,0019.31,0005.74,0002.44
2022-06-15 04:45:00,,0823.7,5.01,0.00,29.9,29.0,00.0,38.7,31.8,17.0,0000.0,0019.00,0005.75,0002.46
2022-06-15 04:46:00,,0823.7,5.00,0.00,29.9,29.1,00.0,38.7,31.9,16.9,0000.0,0018.70,0005.75,0002.46
2022-06-15 04:47:00,,0823.7,5.00,0.00,29.9,29.1,00.0,38.7,31.9,16.9,0000.0,0018.51,0005.73,0002.47
2022-06-15 04:48:00,,0823.7,5.01,0.00,29.9,29.1,00.0,38.7,31.9,16.8,0000.0,0019.25,0005.81,0002.50
2022-06-15 04:49:00,,0823.7,4.99,0.00,29.9,28.3,00.0,38.7,31.6,16.8,0000.0,0019.65,0005.77,0002.49
2022-06-15 04:50:00,,0823.7,5.00,0.00,29.8,27.6,00.0,38.6,31.4,16.9,0000.0,0019.87,0005.78,0002.49
2022-06-15 04:51:00,,0823.7,5.01,0.00,29.7,27.4,00.0,38.6,31.3,17.0,0000.0,0020.27,0005.75,0002.49
2022-06-15 04:52:00,,0823.7,4.99,0.00,29.6,27.5,00.0,38.6,31.3,17.0,0000.0,0020.34,0005.84,0002.50
2022-06-15 04:53:00,,0823.7,5.01,0.00,29.6,27.6,00.0,38.6,31.3,17.1,0000.0,0020.12,0005.75,0002.46
2022-06-15 04:54:00,,0823.7,5.01,0.00,29.6,27.7,00.0,38.5,31.4,17.1,0000.0,0019.18,0005.67,0002.44
2022-06-15 04:55:00,,0823.7,5.00,0.00,29.6,27.9,00.0,38.5,31.4,17.0,0000.0,0018.64,0005.66,0002.45
2022-06-15 04:56:00,,0823.7,4.99,0.00,29.6,28.0,00.0,38.5,31.4,17.0,0000.0,0019.22,0005.67,0002.44
2022-06-15 04:57:00,,0823.7,5.01,0.00,29.6,28.2,00.0,38.5,31.5,17.0,0000.0,0019.36,0005.70,0002.43
2022-06-15 04:58:00,,0823.7,4.99,0.00,29.6,28.3,00.0,38.5,31.5,17.0,0000.0,0020.00,0005.67,0002.42
2022-06-15 04:59:00,,0823.7,5.01,0.00,29.6,28.4,00.0,38.5,31.5,16.9,0000.0,0019.63,0005.61,0002.40
